TEVEL2-3

Last updated on Mon Sep 15 2025 00:03:10 GMT+0000 (Coordinated Universal Time)

1 63218U 25052J 25256.65153528 .00011727 00000+0 50855-3 0 9992 2 63218 97.4147 149.2439 0005014 51.2956 308.8729 15.22502083 27851
UTC large
Height (km)
Speed (km/s)
/
Latitude / Longitude
Inclination (degrees)
Orbital Period (minutes)
Azimuth
Elevation
Range (km)
Doppler Factor

Next 0 passes for location: London (51.5072 / 0.1276)

Sorry there are no passes over London.